Location: Aufkirchen
(47.9603°N, 11.3653°E)
Time: 17:08:40
(UTC+01:00)

Transit 4A - Pass Details

Date: 05 December 2020
Orbit: 864 x 980 km, 66.8° (Epoch: 26 January)

Event Time Altitude Azimuth Distance (km) Brightness Sun altitude
Rises 15:13:19 0° 325° (NW) 3,683 10.9 8.0°
Reaches altitude 10° 15:15:54 10° 325° (NW) 2,724 10.3 7.7°
Maximum altitude 15:22:18 89° 234° (SW) 963 8.2 6.9°
Drops below altitude 10° 15:28:30 10° 148° (SSE) 2,642 10.5 6.2°
Sets 15:30:59 0° 148° (SSE) 3,565 11.1 5.9°
